Regional Weather Roundup
Issued by NWS

Home | Current Version | Previous Version | Graphics & Text | Print | Product List | Glossary On
Versions: 1 2 3 4 5 6 7 8 9 10 11 12 13 14 15 16 17 18 19 20 21 22 23 24 25 26 27 28 29 30 31 32 33 34 35 36 37 38 39 40 41 42 43 44 45 46 47 48 49 50
000
ASUS45 KSLC 011210
RWRUT

UTAH REGIONAL WEATHER ROUNDUP
NATIONAL WEATHER SERVICE SALT LAKE CITY UT
600 AM MDT WED APR 01 2015

UTZ001>011-023>025-011300-

NORTHERN UTAH

CITY           SKY/WX    TMP DP  RH WIND       PRES   REMARKS
BRIGHAM CITY   CLOUDY    42  18  38 N15       30.08R
HILL AFB       CLEAR     39  21  48 N18       30.06R WCI  29
LOGAN          CLOUDY    39  20  46 N8        30.06R WCI  33
OGDEN          CLEAR     40  21  46 NW16G22   30.06R WCI  31
PROVO AIRPORT  MOCLDY    45  25  45 NW25G33   30.01R
SALT LAKE CITY PTCLDY    42  25  50 N14       30.07R
VERNAL         PTCLDY    41  25  53 NW3       29.83R
WENDOVER       CLEAR     39  14  35 N12       30.11R WCI  32
HEBER CITY     MOCLDY    43  21  42 NE10G17   29.97R
WEST JORDAN    CLEAR     39  25  56 NW12      30.08R WCI  32

$$

UTZ012>022-026-027-011300-

SOUTHERN/CENTRAL UTAH

CITY           SKY/WX    TMP DP  RH WIND       PRES   REMARKS
BLANDING       CLEAR     44  24  45 N8        30.00S
BRYCE CANYON   CLEAR     32  21  64 W9        29.98F WCI  24
CEDAR CITY     PTCLDY    44  19  36 NW12      29.95R
DELTA          PTCLDY    44  24  46 N6        30.03R
HANKSVILLE     CLEAR     55  21  26 CALM      29.83S
MILFORD        MOCLDY    46  25  43 N22G31    30.00R
MOAB/CYNLANDS  CLEAR     56  20  24 CALM      29.80R
PRICE          PTCLDY    49  21  33 NW10      29.87R
ST GEORGE      PTSUNNY   55  25  30 SW3       29.85S
KANAB          CLEAR     36  27  69 NE6       29.95S WCI  31

$$

REGIONAL REPORTS     COLORADO/ARIZONA

CITY           SKY/WX    TMP DP  RH WIND       PRES   REMARKS
CRAIG, CO      CLOUDY    45  26  47 S5        29.86R
GRAND JUNCTION PTCLDY    50  21  32 SE8       29.82R
RIFLE          MOCLDY    40  24  53 E7        29.85S
MONTROSE       MOCLDY    51  22  31 S14       29.92S
CORTEZ         MOCLDY    53  26  35 S12       29.96S
PAGE, AZ       NOT AVBL
GRAND CANYON   CLEAR     43  28  55 SW9       30.01F
KINGMAN        CLEAR     45  22  40 VRB3      29.89S
FLAGSTAFF      CLEAR     45  32  60 SW6       30.04F

$$

REGIONAL REPORTS    NEVADA/IDAHO/WYOMING

CITY           SKY/WX    TMP DP  RH WIND       PRES   REMARKS
LAS VEGAS, NV  PTCLDY    64  23  21 S13       29.80R
ELY            CLEAR     31  19  61 NW10      30.09S WCI  22
ELKO           CLEAR     26  18  71 W3        30.15S
POCATELLO, ID  CLEAR     34  25  69 SW21      30.06R WCI  22
BURLEY         CLEAR     34  26  72 W16G28    30.09R WCI  24
EVANSTON, WY   PTCLDY    31  21  66 W14       30.00R WCI  21
ROCK SPRINGS   MOCLDY    41  27  57 W20       29.89R

$$



USA.gov is the U.S. government's official web portal to all federal, state and local government web resources and services.